SCP
0 -0 -0 0 0 0 0 0 0 0 0 -0 -0 -0 -0 -0 -0 -0 -0 -0 0 -0 -0 0 0 0 0 0 0 0 0 0 0 0 0 0 0 0 0 0 0 0 0 0 0 0 0
0 -0 -0 0 0 0 0 0 0 0 0 0 -0 -0 -0 -0 -0 -0 -0 0 -0 -0 -0 -0 -0 0 0 0 -0 0 0 0 0 0 0 0 0 0 0 0 0 0 0 0 0 0 0
0 0 0 0 0 0 0 0 -0 -0 0 0 0 0 0 0 0 -0 -0 -0 -0 -0 -0 -0 -0 0 0 0 0 0 0 0 0 0 0 0 0 0 0 0 0 0 0 0 0 0 0
0 0 0 0 0 0 0 0 0 -0 -0 0 0 0 0 0 -0 -0 -0 -0 -0 -0 -0 -0 -0 0 0 0 0 0 -0 0 0 0 0 0 0 0 0 0 0 0 0 0 0 0 0
0 0 0 0 0 0 0 0 0 0 0 0 0 0 0 0 -0 0 0 -0 -0 -0 -0 -0 0 0 0 0 0 0 0 0 0 0 0 0 0 0 0 0 0 0 0 0 0 0 0
0 0 0 0 0 0 0 0 0 0 0 0 0 0 0 0 0 0 0 -0 -0 -0 -0 -0 0 0 0 0 0 0 0 0 0 0 0 0 0 0 0 0 0 0 0 0 0 0 0
0 0 0 0 0 0 0 0 0 0 0 0 0 0 0 0 0 0 0 0 -0 0 0 0 0 0 0 0 0 0 0 0 0 0 0 0 0 0 0 0 0 0 0 0 0 0 0
0 0 0 0 0 0 0 0 0 0 0 0 0 0 0 0 0 0 -0 -0 -0 0 -0 0 0 0 0 0 0 0 0 0 0 0 0 0 0 0 0 0 0 0 0 0 0 0 0
0 0 0 0 0 0 0 0 0 0 0 0 0 0 0 0 0 0 -0 -0 -0 0 0 0 0 0 0 0 0 0 0 0 0 0 0 0 0 0 0 0 0 0 0 0 0 0 0
0 0 0 0 0 0 0 0 0 0 0 0 0 0 0 0 0 0 0 -0 0 0 0 0 0 0 0 0 0 0 0 0 0 0 0 0 0 0 0 0 0 0 0 0 0 0 0
0 0 0 0 0 0 0 0 0 0 0 0 0 0 0 0 0 0 0 0 0 0 0 0 0 0 0 0 0 0 0 0 0 0 0 0 0 0 0 0 0 0 0 0 0 0 0
0 0 0 0 0 0 0 0 0 0 0 0 0 0 0 0 0 0 0 0 0 0 0 0 0 0 0 0 -0 0 0 0 0 0 0 0 0 0 0 0 0 0 0 0 0 0 0
0 0 0 0 0 0 0 0 0 0 0 0 0 0 0 0 0 0 0 0 0 0 0 0 0 0 0 0 0 0 0 0 0 0 0 0 0 0 0 0 0 0 0 0 0 0 0
0 0 0 0 0 0 0 0 0 0 0 0 0 0 0 0 0 0 0 0 0 0 0 0 0 0 0 0 0 0 0 0 0 0 0 0 0 0 0 0 0 0 0 0 0 0 0
0 0 0 0 0 0 0 0 0 0 0 0 0 0 0 0 0 0 0 0 0 0 0 0 0 0 0 0 0 0 0 0 0 0 0 0 0 0 0 0 0 0 0 0 0 0 0
0 0 0 0 0 0 0 0 0 0 0 0 0 0 0 0 0 0 0 0 0 0 0 0 0 0 0 0 0 0 0 0 0 0 0 0 0 0 0 0 0 0 0 0 0 0 0
0 0 0 0 0 0 0 0 0 0 0 0 0 0 0 0 0 0 0 0 0 0 0 0 0 0 0 0 0 0 0 0 0 0 0 0 0 0 0 0 0 0 0 0 0 0 0
0 0 0 0 0 0 0 0 0 0 0 0 0 0 0 0 0 0 0 0 0 0 0 0 0 0 0 0 0 0 0 0 0 0 0 0 0 0 0 0 0 0 0 0 0 0 0
0 0 0 0 0 0 0 0 0 0 0 0 0 0 0 0 0 0 0 0 0 0 0 0 0 0 0 0 0 0 0 0 0 0 0 0 0 0 0 0 0 0 0 0 0 0 0
0 0 0 0 0 0 0 0 0 0 0 0 0 0 0 0 0 0 0 0 0 0 0 0 0 0 0 0 0 0 0 0 0 0 0 0 0 0 0 0 0 0 0 0 0 0 0
0 0 0 0 0 0 0 0 0 0 0 0 0 0 0 0 0 0 0 0 0 0 0 0 0 0 0 0 0 0 0 0 0 0 0 0 0 0 0 0 0 0 0 0 0 0 0
0 0 0 0 0 0 0 0 0 0 0 0 0 0 0 0 0 0 0 0 0 0 0 0 0 0 0 0 0 0 0 0 0 0 0 0 0 0 0 0 0 0 0 0 0 0 0
0 0 0 0 0 0 0 0 0 0 0 0 0 0 0 0 0 0 0 0 0 0 0 0 0 0 0 0 0 0 0 0 0 0 0 0 0 0 0 0 0 0 0 0 0 0 0
0 0 0 0 0 0 0 0 0 0 0 0 0 0 0 0 0 0 0 0 0 0 0 0 0 0 0 0 0 0 0 0 0 0 0 0 0 0 0 0 0 0 0 0 0 0 0
0 0 0 0 0 0 0 0 0 0 0 0 0 0 0 0 0 0 0 0 0 0 0 0 0 0 0 0 0 0 0 0 0 0 0 0 0 0 0 0 0 0 0 0 0 0 0
0 0 0 0 0 0 0 0 0 0 0 0 0 0 0 0 0 0 0 0 0 0 0 0 0 0 0 0 0 0 0 0 0 0 0 0 0 0 0 0 0 0 0 0 0 0 0
0 0 0 0 0 0 0 0 0 0 0 0 0 0 0 0 0 0 0 0 0 0 0 0 0 0 0 0 0 0 0 0 0 0 0 0 0 0 0 0 0 0 0 0 0 0 0
0 0 0 0 0 0 0 0 0 0 0 0 0 0 0 0 0 0 0 0 0 0 0 0 0 0 0 0 0 0 0 0 0 0 0 0 0 0 0 0 0 0 0 0 0 0 0
0 0 0 0 0 0 0 0 0 0 0 0 0 0 0 0 0 0 0 0 0 0 0 0 0 0 0 0 0 0 0 0 0 0 0 0 0 0 0 0 0 0 0 0 0 0 0
Wind_Speed_500mb
11 12 15 19 21 22 24 26 28 30 33 35 36 37 41 43 44 43 33 26 25 22 23 16 11 11 7 13 13 22 27 23 17 16 21 14 19 9 7 4 5 6 6 13 12 21 15
7 9 12 16 18 20 22 24 26 29 33 35 36 36 39 43 45 49 42 26 26 22 19 13 12 16 9 11 16 23 29 20 19 17 21 17 14 13 6 5 4 5 13 25 13 13 11
5 7 9 11 14 16 18 20 23 26 28 31 34 35 37 39 41 46 46 30 26 19 17 10 6 7 15 11 16 26 28 19 19 19 16 20 17 10 3 5 4 6 8 14 14 10 6
3 4 2 5 8 11 13 15 18 20 23 27 31 32 34 37 41 42 45 35 28 18 21 13 8 7 9 14 14 20 27 17 15 15 10 14 11 7 5 3 2 8 8 10 6 9 6
6 4 4 2 3 4 7 10 15 18 21 25 27 29 32 36 41 39 42 33 25 16 29 13 6 6 6 11 19 19 29 19 12 15 12 11 8 6 5 6 8 14 2 7 17 16 8
14 11 7 6 5 5 6 9 12 14 20 23 26 28 33 34 37 36 40 30 23 7 33 5 8 6 7 13 17 15 27 15 15 12 10 9 6 6 9 10 4 6 4 6 10 10 17
22 18 17 15 15 14 15 12 17 17 17 19 22 24 35 36 35 33 41 28 22 6 18 8 4 3 8 19 9 14 23 11 13 7 7 8 9 3 6 5 4 5 6 11 13 17 13
27 24 25 24 23 23 23 22 21 21 20 19 22 24 26 33 32 29 36 27 21 15 7 4 3 2 7 15 7 10 21 9 11 2 11 11 3 3 3 4 4 6 4 13 11 7 15
27 25 27 27 25 26 29 27 24 21 20 27 23 28 23 30 33 29 34 33 29 24 4 2 4 3 5 10 4 7 17 6 9 6 3 9 5 5 2 5 4 6 7 6 14 9 10
23 9 11 18 21 26 31 21 21 26 27 30 29 28 31 34 23 29 24 31 29 23 9 4 2 4 5 8 6 10 8 3 4 7 3 7 7 5 3 5 7 3 2 7 16 10 5
18 33 33 31 31 25 30 25 31 34 30 30 30 29 26 26 20 22 21 25 23 9 8 3 0 2 9 5 10 0 10 0 3 6 10 10 3 2 2 6 7 14 15 19 12 5 7
16 17 16 19 21 20 28 31 30 31 37 39 37 26 24 29 30 17 16 22 14 10 10 5 3 4 8 2 3 7 4 2 3 4 3 10 2 4 4 7 3 10 9 12 8 7 4
21 24 25 25 27 29 30 33 36 33 32 34 31 20 20 21 15 13 15 17 9 7 4 9 4 2 4 6 3 6 4 3 1 8 7 9 5 1 2 7 10 15 12 9 11 8 10
23 25 24 25 26 29 32 33 31 28 29 28 16 15 15 13 9 8 7 7 6 7 7 4 3 2 2 4 3 8 5 4 1 4 5 6 14 3 3 5 8 5 10 9 9 6 11
30 31 31 31 29 28 27 26 21 20 23 17 15 17 19 15 9 8 2 1 13 7 5 2 3 9 8 2 4 8 5 6 5 6 10 6 10 1 3 4 9 7 3 6 4 2 5
31 32 33 33 33 29 27 22 18 17 16 12 12 13 19 19 12 10 4 9 7 3 1 2 8 7 6 7 2 6 5 4 6 3 6 5 7 5 5 6 8 10 3 6 6 6 12
24 25 27 27 29 27 23 18 13 15 14 16 14 6 7 13 15 9 5 9 5 5 3 4 6 3 10 7 8 5 6 3 6 6 6 7 7 11 6 8 16 3 3 3 6 8 8
22 23 26 26 24 22 20 18 14 13 16 19 13 4 7 12 5 3 4 5 3 5 4 5 2 6 10 9 5 7 9 9 12 15 9 8 7 7 19 7 9 10 14 10 8 11 8
20 22 24 25 24 24 22 21 16 13 23 18 7 8 15 24 5 5 2 4 6 8 6 6 5 7 2 9 3 11 7 5 15 14 12 9 2 6 15 10 9 5 9 8 6 3 13
26 26 25 27 26 24 21 23 25 24 31 20 11 4 7 22 12 6 6 7 5 5 3 6 4 5 4 3 4 7 5 5 16 13 8 8 6 14 13 14 7 7 9 15 12 6 7
31 32 31 29 30 30 26 21 27 34 32 42 14 11 12 7 11 13 12 9 8 5 8 13 3 12 12 7 5 10 9 4 11 13 7 8 10 7 13 19 12 29 31 19 23 30 13
35 35 36 33 33 32 31 29 20 38 36 51 12 9 12 13 10 18 16 12 17 9 16 11 11 13 16 13 16 14 11 10 11 8 11 8 7 3 11 15 18 17 34 31 37 31 31
41 41 40 39 38 35 36 34 26 36 38 30 46 27 13 14 10 9 13 14 16 17 25 12 22 10 20 35 35 18 15 9 9 15 16 11 6 5 11 7 13 16 18 13 11 10 14
48 48 49 46 43 44 41 38 38 35 52 41 18 30 19 16 15 12 12 26 23 35 7 9 23 14 7 11 9 7 5 4 4 9 19 10 9 5 8 10 4 13 8 13 19 15 31
56 57 58 57 53 53 53 48 43 40 49 54 47 25 17 11 23 17 18 14 26 25 19 16 18 14 13 9 2 8 8 10 6 5 1 8 8 4 2 5 17 19 5 12 13 15 24
62 59 59 60 56 58 62 62 62 54 50 58 56 52 28 13 23 40 24 31 11 8 4 10 15 23 21 7 4 9 8 7 7 11 7 3 5 6 5 4 11 10 2 3 5 11 13
63 64 68 69 67 67 66 59 56 63 58 62 68 59 46 28 42 25 14 17 24 19 5 11 14 17 26 6 6 7 9 5 5 13 11 5 4 22 16 9 19 28 17 5 10 12 14
63 66 72 73 72 70 72 68 64 65 64 66 70 67 60 18 44 44 68 47 24 26 11 23 13 7 8 10 7 8 7 10 3 7 13 17 15 9 6 6 19 29 13 17 12 8 11
67 65 69 77 71 75 74 71 67 64 71 70 78 63 62 56 26 35 61 58 58 49 44 41 8 17 28 5 4 4 3 3 7 7 1 5 15 13 23 19 12 44 24 42 31 18 16
Wind_Direction_500mb
40 47 58 61 54 51 51 53 54 47 47 42 38 38 34 31 26 20 16 16 16 16 19 33 45 35 43 36 44 6 2 8 14 10 32 64 70 31 91 62 74 50 328 310 287 302 289
13 28 58 61 56 56 53 52 50 47 47 44 40 36 31 28 24 20 14 11 13 13 20 37 55 50 59 67 27 6 3 14 16 23 37 65 77 60 77 54 74 282 286 280 289 243 244
5 24 49 54 55 55 54 52 48 43 40 38 34 30 26 21 19 16 15 14 8 11 15 7 323 12 62 63 11 6 360 17 24 32 54 69 69 67 50 101 320 277 329 329 225 222 233
347 348 15 47 58 53 48 41 35 34 30 26 23 23 21 18 13 10 8 7 10 25 20 13 44 45 74 22 0 353 7 3 21 41 70 76 70 61 57 3 315 342 38 9 299 181 234
274 295 283 292 22 36 34 25 23 17 15 12 13 17 13 13 12 10 10 7 12 41 11 26 56 52 43 359 351 1 8 14 34 56 57 43 30 14 11 45 26 10 260 308 323 319 358
259 258 263 269 283 296 326 349 350 346 349 350 352 0 1 1 4 6 7 3 11 35 6 65 61 78 22 335 340 8 9 24 37 36 40 7 350 57 26 57 219 264 344 284 272 287 321
258 256 264 265 265 267 275 288 297 309 324 333 341 343 346 351 353 0 3 8 11 343 1 14 342 106 307 343 20 9 4 20 17 33 30 12 61 149 155 111 158 250 251 259 260 270 329
254 261 262 265 266 272 275 271 280 288 301 311 322 331 328 338 347 358 1 26 19 330 320 348 306 333 344 358 353 3 359 34 33 67 348 19 153 127 77 267 283 242 256 283 290 343 324
253 262 272 279 274 273 276 269 267 283 299 301 314 322 320 330 335 342 359 5 1 351 13 358 279 270 340 1 343 335 5 32 86 37 36 157 176 134 120 323 3 286 192 279 270 333 270
298 326 304 290 317 338 332 316 281 276 282 289 313 313 316 321 327 338 350 355 351 344 62 291 39 360 345 348 36 323 357 71 92 198 225 221 208 144 62 258 116 299 244 309 312 34 274
285 278 271 286 300 329 315 298 278 285 280 283 294 300 304 311 308 329 334 345 337 350 6 269 96 331 351 40 322 300 351 183 269 226 92 260 135 160 130 220 135 242 325 292 289 150 16
286 279 280 281 280 288 313 304 289 282 288 289 292 286 282 291 300 312 330 333 328 41 265 327 347 352 15 351 197 315 321 314 281 199 249 240 176 190 245 289 211 302 329 22 69 101 4
283 283 283 281 282 286 284 278 286 289 286 285 290 273 278 288 297 311 337 323 31 144 0 299 326 47 101 306 342 11 317 286 213 43 334 328 299 98 270 7 12 37 43 354 355 6 227
287 284 282 280 281 279 278 274 272 270 272 276 276 275 275 293 290 305 328 46 179 239 248 256 243 300 260 1 17 329 312 283 175 134 92 109 331 135 288 137 186 45 123 141 254 285 271
287 286 286 285 278 272 272 274 270 262 259 268 269 269 268 275 272 263 171 152 208 209 198 221 138 61 315 234 163 37 236 215 155 142 158 102 281 137 45 60 112 267 71 164 111 137 3
284 284 284 284 283 277 275 279 256 257 257 256 256 264 266 258 244 190 108 247 228 156 160 232 166 137 211 260 23 80 236 250 147 122 121 197 340 233 268 85 16 143 168 32 11 344 303
302 300 298 285 277 273 264 262 257 245 242 243 246 227 244 228 215 180 204 232 259 193 196 187 224 245 217 209 174 237 242 247 124 133 99 129 104 290 62 200 180 23 345 12 129 155 202
298 303 304 303 296 268 252 243 233 237 237 245 195 148 231 181 137 217 199 225 205 209 206 189 226 188 182 174 228 243 234 204 151 150 177 199 154 259 229 266 157 165 190 161 132 270 228
307 297 300 305 303 295 249 233 223 226 233 207 223 190 205 184 187 216 226 242 246 200 217 173 232 231 123 187 236 217 225 165 167 170 176 181 276 350 339 351 359 203 222 173 134 112 220
282 281 283 291 300 302 293 240 224 209 222 216 198 143 188 195 217 185 171 224 255 225 231 203 216 138 124 247 240 289 261 198 196 198 174 161 216 188 209 213 146 264 226 204 152 152 222
281 282 284 275 283 293 290 286 223 207 215 225 226 228 190 180 221 186 176 173 177 252 219 204 301 212 173 220 197 225 226 199 202 201 189 143 223 243 253 253 220 255 254 206 204 218 196
285 278 276 272 272 270 276 281 243 207 219 218 219 186 193 189 168 175 193 206 218 183 163 227 206 198 189 197 194 203 183 197 206 170 172 184 258 98 284 255 246 256 253 226 224 241 252
282 281 281 268 264 267 263 262 273 215 217 222 225 240 198 197 182 163 187 203 214 173 224 206 202 161 200 231 227 231 246 235 205 168 189 170 151 64 265 348 313 289 238 173 186 210 160
283 276 275 272 270 256 260 257 256 231 228 227 219 220 203 236 200 196 199 202 213 206 210 201 191 175 222 203 185 237 202 327 264 235 189 145 123 134 267 358 294 248 190 178 196 215 211
280 278 274 271 266 261 257 250 246 246 240 240 229 230 219 240 200 196 213 212 238 216 216 200 198 200 173 138 49 5 333 6 331 9 142 159 129 304 233 220 299 288 178 159 175 279 206
271 274 272 272 270 266 261 256 243 243 238 250 245 228 240 276 233 218 197 202 194 179 171 177 178 168 172 157 151 198 227 208 294 339 348 154 91 148 83 179 243 254 234 147 123 291 202
277 276 267 263 264 263 261 260 253 239 237 237 246 245 234 243 242 215 204 198 190 183 129 143 170 170 185 168 188 187 241 178 214 176 176 149 205 218 215 247 279 253 236 152 87 245 173
278 277 270 267 263 264 258 254 253 245 237 235 240 237 233 250 251 228 228 221 199 190 166 158 125 196 162 197 187 217 174 219 120 185 179 171 162 194 139 206 274 189 113 176 224 230 222
278 283 271 265 263 257 260 256 249 244 240 234 243 241 230 240 255 236 229 233 227 221 210 182 213 169 175 153 223 120 236 97 177 249 292 263 196 182 187 215 242 196 218 225 214 231 253
Wind_Speed_850mb
11 12 15 19 21 22 24 26 28 30 33 35 36 37 41 43 44 43 33 26 25 22 23 16 11 11 7 13 13 22 27 23 17 16 21 14 19 9 7 4 5 6 6 13 12 21 15
7 9 12 16 18 20 22 24 26 29 33 35 36 36 39 43 45 49 42 26 26 22 19 13 12 16 9 11 16 23 29 20 19 17 21 17 14 13 6 5 4 5 13 25 13 13 11
5 7 9 11 14 16 18 20 23 26 28 31 34 35 37 39 41 46 46 30 26 19 17 10 6 7 15 11 16 26 28 19 19 19 16 20 17 10 3 5 4 6 8 14 14 10 6
3 4 2 5 8 11 13 15 18 20 23 27 31 32 34 37 41 42 45 35 28 18 21 13 8 7 9 14 14 20 27 17 15 15 10 14 11 7 5 3 2 8 8 10 6 9 6
6 4 4 2 3 4 7 10 15 18 21 25 27 29 32 36 41 39 42 33 25 16 29 13 6 6 6 11 19 19 29 19 12 15 12 11 8 6 5 6 8 14 2 7 17 16 8
14 11 7 6 5 5 6 9 12 14 20 23 26 28 33 34 37 36 40 30 23 7 33 5 8 6 7 13 17 15 27 15 15 12 10 9 6 6 9 10 4 6 4 6 10 10 17
22 18 17 15 15 14 15 12 17 17 17 19 22 24 35 36 35 33 41 28 22 6 18 8 4 3 8 19 9 14 23 11 13 7 7 8 9 3 6 5 4 5 6 11 13 17 13
27 24 25 24 23 23 23 22 21 21 20 19 22 24 26 33 32 29 36 27 21 15 7 4 3 2 7 15 7 10 21 9 11 2 11 11 3 3 3 4 4 6 4 13 11 7 15
27 25 27 27 25 26 29 27 24 21 20 27 23 28 23 30 33 29 34 33 29 24 4 2 4 3 5 10 4 7 17 6 9 6 3 9 5 5 2 5 4 6 7 6 14 9 10
23 9 11 18 21 26 31 21 21 26 27 30 29 28 31 34 23 29 24 31 29 23 9 4 2 4 5 8 6 10 8 3 4 7 3 7 7 5 3 5 7 3 2 7 16 10 5
18 33 33 31 31 25 30 25 31 34 30 30 30 29 26 26 20 22 21 25 23 9 8 3 0 2 9 5 10 0 10 0 3 6 10 10 3 2 2 6 7 14 15 19 12 5 7
16 17 16 19 21 20 28 31 30 31 37 39 37 26 24 29 30 17 16 22 14 10 10 5 3 4 8 2 3 7 4 2 3 4 3 10 2 4 4 7 3 10 9 12 8 7 4
21 24 25 25 27 29 30 33 36 33 32 34 31 20 20 21 15 13 15 17 9 7 4 9 4 2 4 6 3 6 4 3 1 8 7 9 5 1 2 7 10 15 12 9 11 8 10
23 25 24 25 26 29 32 33 31 28 29 28 16 15 15 13 9 8 7 7 6 7 7 4 3 2 2 4 3 8 5 4 1 4 5 6 14 3 3 5 8 5 10 9 9 6 11
30 31 31 31 29 28 27 26 21 20 23 17 15 17 19 15 9 8 2 1 13 7 5 2 3 9 8 2 4 8 5 6 5 6 10 6 10 1 3 4 9 7 3 6 4 2 5
31 32 33 33 33 29 27 22 18 17 16 12 12 13 19 19 12 10 4 9 7 3 1 2 8 7 6 7 2 6 5 4 6 3 6 5 7 5 5 6 8 10 3 6 6 6 12
24 25 27 27 29 27 23 18 13 15 14 16 14 6 7 13 15 9 5 9 5 5 3 4 6 3 10 7 8 5 6 3 6 6 6 7 7 11 6 8 16 3 3 3 6 8 8
22 23 26 26 24 22 20 18 14 13 16 19 13 4 7 12 5 3 4 5 3 5 4 5 2 6 10 9 5 7 9 9 12 15 9 8 7 7 19 7 9 10 14 10 8 11 8
20 22 24 25 24 24 22 21 16 13 23 18 7 8 15 24 5 5 2 4 6 8 6 6 5 7 2 9 3 11 7 5 15 14 12 9 2 6 15 10 9 5 9 8 6 3 13
26 26 25 27 26 24 21 23 25 24 31 20 11 4 7 22 12 6 6 7 5 5 3 6 4 5 4 3 4 7 5 5 16 13 8 8 6 14 13 14 7 7 9 15 12 6 7
31 32 31 29 30 30 26 21 27 34 32 42 14 11 12 7 11 13 12 9 8 5 8 13 3 12 12 7 5 10 9 4 11 13 7 8 10 7 13 19 12 29 31 19 23 30 13
35 35 36 33 33 32 31 29 20 38 36 51 12 9 12 13 10 18 16 12 17 9 16 11 11 13 16 13 16 14 11 10 11 8 11 8 7 3 11 15 18 17 34 31 37 31 31
41 41 40 39 38 35 36 34 26 36 38 30 46 27 13 14 10 9 13 14 16 17 25 12 22 10 20 35 35 18 15 9 9 15 16 11 6 5 11 7 13 16 18 13 11 10 14
48 48 49 46 43 44 41 38 38 35 52 41 18 30 19 16 15 12 12 26 23 35 7 9 23 14 7 11 9 7 5 4 4 9 19 10 9 5 8 10 4 13 8 13 19 15 31
56 57 58 57 53 53 53 48 43 40 49 54 47 25 17 11 23 17 18 14 26 25 19 16 18 14 13 9 2 8 8 10 6 5 1 8 8 4 2 5 17 19 5 12 13 15 24
62 59 59 60 56 58 62 62 62 54 50 58 56 52 28 13 23 40 24 31 11 8 4 10 15 23 21 7 4 9 8 7 7 11 7 3 5 6 5 4 11 10 2 3 5 11 13
63 64 68 69 67 67 66 59 56 63 58 62 68 59 46 28 42 25 14 17 24 19 5 11 14 17 26 6 6 7 9 5 5 13 11 5 4 22 16 9 19 28 17 5 10 12 14
63 66 72 73 72 70 72 68 64 65 64 66 70 67 60 18 44 44 68 47 24 26 11 23 13 7 8 10 7 8 7 10 3 7 13 17 15 9 6 6 19 29 13 17 12 8 11
67 65 69 77 71 75 74 71 67 64 71 70 78 63 62 56 26 35 61 58 58 49 44 41 8 17 28 5 4 4 3 3 7 7 1 5 15 13 23 19 12 44 24 42 31 18 16
Wind_Direction_850mb
40 47 58 61 54 51 51 53 54 47 47 42 38 38 34 31 26 20 16 16 16 16 19 33 45 35 43 36 44 6 2 8 14 10 32 64 70 31 91 62 74 50 328 310 287 302 289
13 28 58 61 56 56 53 52 50 47 47 44 40 36 31 28 24 20 14 11 13 13 20 37 55 50 59 67 27 6 3 14 16 23 37 65 77 60 77 54 74 282 286 280 289 243 244
5 24 49 54 55 55 54 52 48 43 40 38 34 30 26 21 19 16 15 14 8 11 15 7 323 12 62 63 11 6 360 17 24 32 54 69 69 67 50 101 320 277 329 329 225 222 233
347 348 15 47 58 53 48 41 35 34 30 26 23 23 21 18 13 10 8 7 10 25 20 13 44 45 74 22 0 353 7 3 21 41 70 76 70 61 57 3 315 342 38 9 299 181 234
274 295 283 292 22 36 34 25 23 17 15 12 13 17 13 13 12 10 10 7 12 41 11 26 56 52 43 359 351 1 8 14 34 56 57 43 30 14 11 45 26 10 260 308 323 319 358
259 258 263 269 283 296 326 349 350 346 349 350 352 0 1 1 4 6 7 3 11 35 6 65 61 78 22 335 340 8 9 24 37 36 40 7 350 57 26 57 219 264 344 284 272 287 321
258 256 264 265 265 267 275 288 297 309 324 333 341 343 346 351 353 0 3 8 11 343 1 14 342 106 307 343 20 9 4 20 17 33 30 12 61 149 155 111 158 250 251 259 260 270 329
254 261 262 265 266 272 275 271 280 288 301 311 322 331 328 338 347 358 1 26 19 330 320 348 306 333 344 358 353 3 359 34 33 67 348 19 153 127 77 267 283 242 256 283 290 343 324
253 262 272 279 274 273 276 269 267 283 299 301 314 322 320 330 335 342 359 5 1 351 13 358 279 270 340 1 343 335 5 32 86 37 36 157 176 134 120 323 3 286 192 279 270 333 270
298 326 304 290 317 338 332 316 281 276 282 289 313 313 316 321 327 338 350 355 351 344 62 291 39 360 345 348 36 323 357 71 92 198 225 221 208 144 62 258 116 299 244 309 312 34 274
285 278 271 286 300 329 315 298 278 285 280 283 294 300 304 311 308 329 334 345 337 350 6 269 96 331 351 40 322 300 351 183 269 226 92 260 135 160 130 220 135 242 325 292 289 150 16
286 279 280 281 280 288 313 304 289 282 288 289 292 286 282 291 300 312 330 333 328 41 265 327 347 352 15 351 197 315 321 314 281 199 249 240 176 190 245 289 211 302 329 22 69 101 4
283 283 283 281 282 286 284 278 286 289 286 285 290 273 278 288 297 311 337 323 31 144 0 299 326 47 101 306 342 11 317 286 213 43 334 328 299 98 270 7 12 37 43 354 355 6 227
287 284 282 280 281 279 278 274 272 270 272 276 276 275 275 293 290 305 328 46 179 239 248 256 243 300 260 1 17 329 312 283 175 134 92 109 331 135 288 137 186 45 123 141 254 285 271
287 286 286 285 278 272 272 274 270 262 259 268 269 269 268 275 272 263 171 152 208 209 198 221 138 61 315 234 163 37 236 215 155 142 158 102 281 137 45 60 112 267 71 164 111 137 3
284 284 284 284 283 277 275 279 256 257 257 256 256 264 266 258 244 190 108 247 228 156 160 232 166 137 211 260 23 80 236 250 147 122 121 197 340 233 268 85 16 143 168 32 11 344 303
302 300 298 285 277 273 264 262 257 245 242 243 246 227 244 228 215 180 204 232 259 193 196 187 224 245 217 209 174 237 242 247 124 133 99 129 104 290 62 200 180 23 345 12 129 155 202
298 303 304 303 296 268 252 243 233 237 237 245 195 148 231 181 137 217 199 225 205 209 206 189 226 188 182 174 228 243 234 204 151 150 177 199 154 259 229 266 157 165 190 161 132 270 228
307 297 300 305 303 295 249 233 223 226 233 207 223 190 205 184 187 216 226 242 246 200 217 173 232 231 123 187 236 217 225 165 167 170 176 181 276 350 339 351 359 203 222 173 134 112 220
282 281 283 291 300 302 293 240 224 209 222 216 198 143 188 195 217 185 171 224 255 225 231 203 216 138 124 247 240 289 261 198 196 198 174 161 216 188 209 213 146 264 226 204 152 152 222
281 282 284 275 283 293 290 286 223 207 215 225 226 228 190 180 221 186 176 173 177 252 219 204 301 212 173 220 197 225 226 199 202 201 189 143 223 243 253 253 220 255 254 206 204 218 196
285 278 276 272 272 270 276 281 243 207 219 218 219 186 193 189 168 175 193 206 218 183 163 227 206 198 189 197 194 203 183 197 206 170 172 184 258 98 284 255 246 256 253 226 224 241 252
282 281 281 268 264 267 263 262 273 215 217 222 225 240 198 197 182 163 187 203 214 173 224 206 202 161 200 231 227 231 246 235 205 168 189 170 151 64 265 348 313 289 238 173 186 210 160
283 276 275 272 270 256 260 257 256 231 228 227 219 220 203 236 200 196 199 202 213 206 210 201 191 175 222 203 185 237 202 327 264 235 189 145 123 134 267 358 294 248 190 178 196 215 211
280 278 274 271 266 261 257 250 246 246 240 240 229 230 219 240 200 196 213 212 238 216 216 200 198 200 173 138 49 5 333 6 331 9 142 159 129 304 233 220 299 288 178 159 175 279 206
271 274 272 272 270 266 261 256 243 243 238 250 245 228 240 276 233 218 197 202 194 179 171 177 178 168 172 157 151 198 227 208 294 339 348 154 91 148 83 179 243 254 234 147 123 291 202
277 276 267 263 264 263 261 260 253 239 237 237 246 245 234 243 242 215 204 198 190 183 129 143 170 170 185 168 188 187 241 178 214 176 176 149 205 218 215 247 279 253 236 152 87 245 173
278 277 270 267 263 264 258 254 253 245 237 235 240 237 233 250 251 228 228 221 199 190 166 158 125 196 162 197 187 217 174 219 120 185 179 171 162 194 139 206 274 189 113 176 224 230 222
278 283 271 265 263 257 260 256 249 244 240 234 243 241 230 240 255 236 229 233 227 221 210 182 213 169 175 153 223 120 236 97 177 249 292 263 196 182 187 215 242 196 218 225 214 231 253